Hlavní strana
METAR-TAF:

METAR-TAF

Letiště :

Morristown, Tennessee, Spojené státy americké

zeměpisná šířka: 36-10-46N, zeměpisná délka: 083-22-32W, výška: 400 m

Aktuální stav počasí

Zpráva byla vytvořena před 32 minutami, v 17:55 UTC
Západní vítr 12 kt
Teplota 2°C
Vlhkost vzduchu 51%
Tlak 1020 hPa
Viditelnost: 16.1 km
Jasno

METAR: KMOR 271755Z AUTO 28012KT 10SM CLR 02/M07 A3012 RMK A01

Čas: 12:27 (18:27 UTC)


TAF: chybějící

Stav a předpovědi počasí z více než 4 000 letišť (zprávy METAR a TAF).

Červené a žluté tečky na mapě představují dostupné meteorologické stanice.

Když kurzor umístíte na tečku, zobrazí se název stanice.

Pak kliknutím zobrazíte stav a předpověď počasí.

Chcete-li změnit mapu, kliknutím na zelené tlačítko se znaménkem +mapu přiblížíte, kliknutím na zelené tlačítko se znaménkem – mapu oddálíte a kliknutím na zelené šipky přejdete na sousední mapy.


METAR-TAF: